Location: Newark
(45.8667°N, 9.7333°E)
Time: 12:21:32
(UTC+00:00)

AO-73 - Pass Details

Date: 21 February 2020
Orbit: 581 x 664 km, 97.6° (Epoch: 03 April)

Event Time Altitude Azimuth Distance (km) Brightness Sun altitude
Rises 04:20:27 0° 30° (NNE) 3,012 ? -20.6°
Reaches altitude 10° 04:23:35 10° 52° (NE) 2,091 ? -20.1°
Maximum altitude 04:26:18 15° 89° (E) 1,743 ? -19.6°
Drops below altitude 10° 04:28:59 10° 126° (SE) 2,070 ? -19.1°
Sets 04:32:02 0° 148° (SSE) 2,963 ? -18.6°
